When you browse on this site, cookies collect data to enhance your experience and personalize the content and advertising you see.
Visit our Privacy Policy to learn more. By continuing to use the site, you agree to this use of cookies and data.
  • în România
  • Lista ţărilor
  • Pe 7 zile
  • Temperatura apei
  • Hartă satelitară
  • Meteo pe hartă
  • Widget-uri
  • user-avatar
    Intrare

    Meteo pe oră la Kutaisi

    Astăzi, 21 Martie, Joi

    Timp Temperatura Precipitaţii Vânt Presiune Umiditate
    00:00 +8°C° 0 mm 0 m/s 752 mmHg 76%
    01:00 +7°C° 0 mm 0 m/s 752 mmHg 76%
    02:00 +7°C° 0 mm 0 m/s 752 mmHg 77%
    03:00 +8°C° 0 mm 1 m/s 752 mmHg 76%
    04:00 +7°C° 0 mm 1 m/s 753 mmHg 76%
    05:00 +7°C° 0 mm 1 m/s 753 mmHg 76%
    06:00 +6°C° 0 mm 0 m/s 753 mmHg 75%
    07:00 +8°C° 0 mm 1 m/s 753 mmHg 70%
    08:00 +9°C° 0 mm 1 m/s 753 mmHg 65%
    09:00 +10°C° 0 mm 1 m/s 753 mmHg 60%
    10:00 +10°C° 0 mm 2 m/s 752 mmHg 60%
    11:00 +12°C° 0 mm 2 m/s 752 mmHg 59%
    12:00 +11°C° 0 mm 3 m/s 752 mmHg 59%
    13:00 +11°C° 0 mm 3 m/s 752 mmHg 62%
    14:00 +11°C° 0 mm 3 m/s 752 mmHg 66%
    15:00 +11°C° 0 mm 3 m/s 752 mmHg 69%
    16:00 +10°C° 0 mm 3 m/s 752 mmHg 74%
    17:00 +9°C° 0 mm 3 m/s 752 mmHg 78%
    18:00 +9°C° 0 mm 3 m/s 752 mmHg 83%
    19:00 +8°C° 0.1 mm 2 m/s 753 mmHg 86%
    20:00 +8°C° 0.1 mm 2 m/s 753 mmHg 89%
    21:00 +7°C° 0.1 mm 2 m/s 754 mmHg 92%
    22:00 +8°C° 0 mm 1 m/s 754 mmHg 93%
    23:00 +7°C° 0 mm 1 m/s 754 mmHg 94%

    Mâine, 22 Martie, Vineri

    Timp Temperatura Precipitaţii Vânt Presiune Umiditate
    00:00 +7°C° 0 mm 1 m/s 754 mmHg 94%
    01:00 +7°C° 0 mm 1 m/s 754 mmHg 94%
    02:00 +7°C° 0 mm 1 m/s 754 mmHg 93%
    03:00 +6°C° 0 mm 1 m/s 754 mmHg 93%
    04:00 +6°C° 0.1 mm 1 m/s 754 mmHg 90%
    05:00 +6°C° 0.1 mm 1 m/s 754 mmHg 88%
    06:00 +5°C° 0.1 mm 0 m/s 754 mmHg 86%
    07:00 +7°C° 0.3 mm 1 m/s 754 mmHg 82%
    08:00 +7°C° 0.3 mm 1 m/s 754 mmHg 79%
    09:00 +8°C° 0.3 mm 1 m/s 754 mmHg 75%
    10:00 +7°C° 0.5 mm 2 m/s 753 mmHg 76%
    11:00 +8°C° 0.5 mm 2 m/s 753 mmHg 77%
    12:00 +8°C° 0.5 mm 3 m/s 753 mmHg 78%
    13:00 +7°C° 0.7 mm 4 m/s 752 mmHg 79%
    14:00 +7°C° 0.7 mm 4 m/s 752 mmHg 80%
    15:00 +7°C° 0.7 mm 5 m/s 752 mmHg 81%
    16:00 +7°C° 0.5 mm 5 m/s 752 mmHg 83%
    17:00 +7°C° 0.5 mm 4 m/s 752 mmHg 85%
    18:00 +6°C° 0.5 mm 4 m/s 752 mmHg 87%
    19:00 +7°C° 0.1 mm 3 m/s 752 mmHg 90%
    20:00 +5°C° 0.1 mm 3 m/s 753 mmHg 92%
    21:00 +6°C° 0.1 mm 2 m/s 753 mmHg 94%
    22:00 +5°C° 0.1 mm 2 m/s 753 mmHg 94%
    23:00 +6°C° 0.1 mm 1 m/s 753 mmHg 94%

    Poimâine, 23 Martie, Sâmbătă

    Timp Temperatura Precipitaţii Vânt Presiune Umiditate
    00:00 +6°C° 0.1 mm 1 m/s 752 mmHg 94%
    01:00 +6°C° 0.2 mm 1 m/s 752 mmHg 92%
    02:00 +5°C° 0.2 mm 1 m/s 752 mmHg 90%
    03:00 +5°C° 0.2 mm 1 m/s 752 mmHg 88%
    04:00 +5°C° 0.2 mm 1 m/s 751 mmHg 88%
    05:00 +5°C° 0.2 mm 1 m/s 751 mmHg 87%
    06:00 +5°C° 0.2 mm 1 m/s 751 mmHg 86%
    07:00 +6°C° 0.1 mm 1 m/s 750 mmHg 82%
    08:00 +7°C° 0.1 mm 1 m/s 750 mmHg 78%
    09:00 +8°C° 0.1 mm 1 m/s 750 mmHg 74%
    10:00 +9°C° 0.1 mm 1 m/s 749 mmHg 70%
    11:00 +10°C° 0.1 mm 1 m/s 748 mmHg 66%
    12:00 +11°C° 0.1 mm 1 m/s 748 mmHg 62%
    13:00 +11°C° 0.1 mm 1 m/s 747 mmHg 62%
    14:00 +11°C° 0.1 mm 1 m/s 747 mmHg 61%
    15:00 +11°C° 0.1 mm 1 m/s 746 mmHg 61%
    16:00 +10°C° 0.2 mm 1 m/s 747 mmHg 64%
    17:00 +9°C° 0.2 mm 1 m/s 747 mmHg 67%
    18:00 +8°C° 0.2 mm 0 m/s 747 mmHg 70%
    19:00 +7°C° 0.4 mm 0 m/s 748 mmHg 74%
    20:00 +6°C° 0.4 mm 0 m/s 748 mmHg 78%
    21:00 +6°C° 0.4 mm 0 m/s 748 mmHg 82%
    22:00 +5°C° 0.6 mm 0 m/s 748 mmHg 84%
    23:00 +5°C° 0.6 mm 0 m/s 748 mmHg 86%

    24 Martie, Duminică

    Timp Temperatura Precipitaţii Vânt Presiune Umiditate
    00:00 +5°C° 0.6 mm 0 m/s 748 mmHg 87%
    01:00 +5°C° 0.6 mm 1 m/s 748 mmHg 88%
    02:00 +4°C° 0.6 mm 2 m/s 748 mmHg 89%
    03:00 +4°C° 0.6 mm 2 m/s 748 mmHg 90%
    04:00 +4°C° 0.4 mm 2 m/s 748 mmHg 91%
    05:00 +3°C° 0.4 mm 2 m/s 748 mmHg 91%
    06:00 +4°C° 0.4 mm 1 m/s 748 mmHg 91%
    07:00 +4°C° 0.2 mm 1 m/s 749 mmHg 88%
    08:00 +5°C° 0.2 mm 1 m/s 749 mmHg 86%
    09:00 +5°C° 0.2 mm 1 m/s 749 mmHg 83%
    10:00 +5°C° 0.1 mm 2 m/s 749 mmHg 80%
    11:00 +5°C° 0.1 mm 2 m/s 749 mmHg 77%
    12:00 +6°C° 0.1 mm 2 m/s 749 mmHg 74%
    13:00 +5°C° 0.1 mm 3 m/s 749 mmHg 75%
    14:00 +5°C° 0.1 mm 3 m/s 749 mmHg 75%
    15:00 +5°C° 0.1 mm 3 m/s 748 mmHg 76%
    16:00 +5°C° 0.2 mm 3 m/s 749 mmHg 79%
    17:00 +4°C° 0.2 mm 3 m/s 749 mmHg 82%
    18:00 +4°C° 0.2 mm 3 m/s 749 mmHg 85%
    19:00 +3°C° 0.1 mm 3 m/s 750 mmHg 87%
    20:00 +3°C° 0.1 mm 3 m/s 750 mmHg 89%
    21:00 +3°C° 0.1 mm 2 m/s 751 mmHg 91%
    22:00 +3°C° 0.1 mm 2 m/s 751 mmHg 91%
    23:00 +4°C° 0.1 mm 1 m/s 751 mmHg 92%

    25 Martie, Luni

    Timp Temperatura Precipitaţii Vânt Presiune Umiditate
    00:00 +3°C° 0.1 mm 1 m/s 751 mmHg 92%
    01:00 +3°C° 0 mm 1 m/s 751 mmHg 93%
    02:00 +3°C° 0 mm 1 m/s 751 mmHg 93%
    03:00 +3°C° 0 mm 1 m/s 751 mmHg 93%
    04:00 +2°C° 0 mm 1 m/s 751 mmHg 93%
    05:00 +1°C° 0 mm 0 m/s 752 mmHg 93%
    06:00 +1°C° 0 mm 0 m/s 752 mmHg 93%
    07:00 +3°C° 0 mm 1 m/s 751 mmHg 89%
    08:00 +4°C° 0 mm 1 m/s 751 mmHg 84%
    09:00 +5°C° 0 mm 1 m/s 751 mmHg 79%
    10:00 +6°C° 0 mm 1 m/s 750 mmHg 76%
    11:00 +7°C° 0 mm 1 m/s 750 mmHg 72%
    12:00 +7°C° 0 mm 1 m/s 749 mmHg 69%
    13:00 +7°C° 0 mm 2 m/s 749 mmHg 69%
    14:00 +7°C° 0 mm 2 m/s 749 mmHg 69%
    15:00 +7°C° 0 mm 2 m/s 748 mmHg 69%
    16:00 +6°C° 0 mm 2 m/s 748 mmHg 72%
    17:00 +7°C° 0 mm 1 m/s 749 mmHg 75%
    18:00 +6°C° 0 mm 1 m/s 749 mmHg 79%
    19:00 +5°C° 0 mm 1 m/s 749 mmHg 81%
    20:00 +5°C° 0 mm 1 m/s 750 mmHg 83%
    21:00 +4°C° 0 mm 1 m/s 750 mmHg 86%
    22:00 +4°C° 0 mm 1 m/s 750 mmHg 84%
    23:00 +3°C° 0 mm 1 m/s 750 mmHg 83%

    26 Martie, Marţi

    Timp Temperatura Precipitaţii Vânt Presiune Umiditate
    00:00 +3°C° 0 mm 1 m/s 749 mmHg 81%
    01:00 +2°C° 0 mm 2 m/s 749 mmHg 79%
    02:00 +2°C° 0 mm 2 m/s 749 mmHg 78%
    03:00 +2°C° 0 mm 2 m/s 748 mmHg 76%
    04:00 +2°C° 0 mm 2 m/s 748 mmHg 74%
    05:00 +2°C° 0 mm 2 m/s 748 mmHg 73%
    06:00 +2°C° 0 mm 2 m/s 748 mmHg 72%
    07:00 +4°C° 0 mm 2 m/s 748 mmHg 68%
    08:00 +7°C° 0 mm 2 m/s 747 mmHg 64%
    09:00 +9°C° 0 mm 2 m/s 747 mmHg 60%
    10:00 +12°C° 0 mm 2 m/s 746 mmHg 58%
    11:00 +13°C° 0 mm 2 m/s 746 mmHg 57%
    12:00 +15°C° 0 mm 2 m/s 745 mmHg 56%
    13:00 +15°C° 0 mm 2 m/s 745 mmHg 55%
    14:00 +16°C° 0 mm 2 m/s 744 mmHg 55%
    15:00 +16°C° 0 mm 2 m/s 744 mmHg 54%
    16:00 +15°C° 0 mm 2 m/s 744 mmHg 60%
    17:00 +14°C° 0 mm 1 m/s 744 mmHg 65%
    18:00 +12°C° 0 mm 1 m/s 745 mmHg 70%
    19:00 +10°C° 0 mm 2 m/s 745 mmHg 71%
    20:00 +9°C° 0 mm 2 m/s 746 mmHg 73%
    21:00 +8°C° 0 mm 3 m/s 746 mmHg 74%
    22:00 +8°C° 0 mm 3 m/s 746 mmHg 72%
    23:00 +7°C° 0 mm 3 m/s 746 mmHg 70%
    Arată mai mult